Preview of NWS' New Version of Forecast
This preview is not operational and should not be used for support decisions.

Regional Weather Roundup (RWR)

Issued by National Weather Service (NWS)

                            
000
ASUS44 KMEG 190210
RWRTN 
TENNESSEE HOURLY STATE WEATHER ROUNDUP
NATIONAL WEATHER SERVICE MEMPHIS TN
900 PM CDT MON MAR 18 2019

TNZ002-004-019-021-049-052-054-088>092-190300-
WEST TENNESSEE
  
CITY           SKY/WX    TMP DP  RH WIND       PRES   REMARKS
MEMPHIS INTL   FAIR      50  28  42 NE7       30.36S                  
NWS MEMPHIS      N/A     46 N/A N/A MISG        N/A                   
JACKSON        FAIR      41  26  55 CALM      30.38R                  
DYERSBURG      FAIR      47  24  40 CALM      30.39S                  
SOMERVILLE     CLOUDY    46  25  42 CALM      30.35S                  
COVINGTON      MOCLDY    43  34  70 CALM      30.37S                  
UNION CITY     CLEAR     43  28  56 CALM      30.38R                  
BOLIVAR        CLEAR     43  27  52 CALM      30.36S                  
PARIS          CLEAR     41  23  48 CALM      30.39R                  
HUNTINGDON     CLEAR     39  25  56 CALM      30.38R                  
LEXINGTON      CLEAR     45  16  31 NE3       30.37R                  
SAVANNAH       CLEAR     41  28  60 CALM      30.36S                  
$$

TNZ008-025-027-028-033-062-065-066-190300-
NORTH MIDDLE TENNESSEE
  
CITY           SKY/WX    TMP DP  RH WIND       PRES   REMARKS
NASHVILLE      FAIR      45  19  35 N5        30.40R                  
DICKSON        CLEAR     45  16  31 NE3       30.37S                  
CLARKSVILLE    FAIR      41  20  43 NE3       30.40R                  
LEBANON        PTCLDY    37  23  56 CALM      30.38R                  
SMYRNA         FAIR      37  25  61 N3        30.40R                  
MURFREESBORO   MOCLDY    43  21  42 CALM      30.37R                  
COOKEVILLE     CLEAR     30  25  80 N3        30.36S                  
LIVINGSTON     CLEAR     41  16  36 N6        30.35S                  
GALLATIN       CLEAR     41  23  48 CALM      30.41S                  
CROSSVILLE     FAIR      38  15  39 NE3       30.35R                  
ROCKWOOD       PTCLDY    39  12  33 N6        30.34R WCI  35          
$$

TNZ061-075-076-078-094-096-097-190300-
SOUTH MIDDLE TENNESSEE
  
CITY           SKY/WX    TMP DP  RH WIND       PRES   REMARKS
LAWRENCEBURG   PTCLDY    43  21  42 NE6       30.35S                  
LEWISBURG      CLEAR     36  25  64 CALM      30.38R                  
FAYETTEVILLE   CLEAR     43  19  39 N8        30.35R                  
TULLAHOMA      CLEAR     41  19  42 N5        30.36R                  
WINCHESTER     CLEAR     41  21  45 NE5       30.35R                  
MCMINNVILLE    CLEAR     41  18  38 N5        30.36S                  
COLUMBIA       CLEAR     43  19  39 NE5       30.36R                  
SHELBYVILLE    CLEAR     41  23  48 N5        30.37R                  
$$

TNZ017-018-042-046-047-190300-
NORTHEAST TENNESSEE
  
CITY           SKY/WX    TMP DP  RH WIND       PRES   REMARKS
TRI CITIES     FAIR      35  16  45 N3        30.34S                  
ELIZABETHTON   FAIR      34  21  60 CALM      30.34S                  
GREENEVILLE    CLEAR     39  14  35 CALM      30.33S                  
$$

TNZ012-013-036-069-073-074-190300-
CENTRAL EAST TENNESSEE
  
CITY           SKY/WX    TMP DP  RH WIND       PRES   REMARKS
KNOXVILLE      MOCLDY    44  16  32 N6        30.34R                  
OAK RIDGE      FAIR      44  16  32 CALM      30.37R                  
DOWNTOWN KNOXV CLEAR     41  28  60 CALM      30.36R                  
GATLINBURG     CLEAR     39  19  45 CALM      30.35R                  
MORRISTOWN     CLEAR     41  16  36 N3        30.34R                  
JACKSBORO      PTCLDY    41  16  36 CALM      30.40R                  
$$

TNZ083-085-099-190300-
SOUTHEAST TENNESSEE
  
CITY           SKY/WX    TMP DP  RH WIND       PRES   REMARKS
CHATTANOOGA    MOCLDY    47  17  30 N8        30.35R                  
DAYTON         CLEAR     43  23  45 N6        30.35R                  
$$

SKY/WX REPORTED AS FAIR MEANS FEW OR NO CLOUDS BELOW
12 THOUSAND FEET.